Location: Franzen
(48.6167°N, 15.3833°E)
Time: 13:47:05
(UTC+00:00)

Cosmos 1655 Rocket - Pass Details

Date: 04 August 2021
Orbit: 969 x 1007 km, 82.9° (Epoch: 25 September)

Event Time Altitude Azimuth Distance (km) Brightness Sun altitude
Exits shadow 21:35:23 10° 219° (SW) 2,796 6.1 -21.5°
Reaches altitude 10° 21:35:27 10° 220° (SW) 2,771 6.1 -21.5°
Maximum altitude 21:41:24 40° 288° (WNW) 1,446 5.2 -21.8°
Drops below altitude 10° 21:47:25 10° 357° (N) 2,796 7.4 -22.2°
Sets 21:50:09 0° 5° (N) 3,750 8.2 -22.3°
